Showing default

ESSA 4 (TOS-B), 2657

Orbit data source: Space-Track

ESSA 4 (TOS-B), 2657 is a payload satellite owned by ESSA (US) in SSO that was launched on Thu, 26 Jan 1967 UTC via a THOR DELTA E launch vehicle from the Air Force Western Test Range (AFWTR). Payload-class satellites include a variety of spacecraft equipped with specific instruments for various scientific and technological missions. These include communications satellites like Starlink; space stations such as the ISS; scientific satellites like the Hubble; Earth observation satellites from companies like Planet Labs, Umbra, and HawkEye 360; GPS; miniature CubeSats for education and research; and military/defense satellites.

Loading next visibility...
Identifier
2657, 1967-006A
Orbit
SSO
Country
Flag of USUS
Related business
Manufacturer
RCA/East Windsor
Mission
Non-operational spacecraft
Bus & Motor
TIROS I, Unknown motor
Mass
132 kg wet, 132 kg dry
Launch date (UTC)
1967-01-26 (59 years ago)
Launch vehicle
THOR DELTA E
Launch site
Air Force Western Test Range (AFWTR)
Object type
Payload
Rocket body
Debris
Shape & HBR
Unknown
Radar Cross Section
Medium (>0.1 m² and <1 m²)

Expand to show TLE details & history
Last TLE update: 17 hours ago

TLE from 17 hours ago
0 ESSA 4 (TOS-B)
1 02657U 67006A   26125.48901852 -.00000054  00000-0 -25818-4 0  9991
2 02657 102.0873 321.8753 0073025   3.3561  51.4455 12.69890540747126
Epoch: 2026-05-05T11:44Z
TLE epoch observation values (Epoch: 2026-05-05T11:44:11.200Z)
Latitude
53.7516°
Longitude
-94.42997°
Altitude
1,355.917 km
Speed
7.202 km/s
True Right ascension
20h 19m 55s
True Declination
53° 36' 01"
Sunlit
Object was in daylight at epoch
Visualization orbit readout
Latitude
Unknown
Longitude
Unknown
Altitude
Unknown
Speed
Unknown
Apparent Right ascension
Unknown
Apparent Declination
Unknown
Sunlit
N/A
Visualization observer readout
Local Sidereal Time
12:40:20
Azimuth
Unknown
Elevation
Unknown
Doppler factor
Unknown
Orbital elements
Apogee altitude
1,436.58 km
Perigee altitude
1,323.273 km
Semi-major axis
7,758.064 km
Eccentricity
0.0073
Inclination
102.0873°
RAAN
321.8753°
Arg. of periapsis
3.3561°
True anomaly
52.10362°
Mean anomaly
51.4455°
Eccentric anomaly
51.77419°
Mean motion
3.17624 °/min
Orbital period
113.34 mins
BSTAR
-0.000025818
Loading maneuver chart data...
Computing Atmospheric mass density...
Loading historical data...
Loading historical data...
Loading historical data...
Loading historical data...
Loading historical data...
Loading historical data...
Loading historical data...
Other satellites on launch #6 in the year 1967 (1967-01-26 UTC)

Documentation

Showing up to 5 results
|